Location: Frankfurt am Main
(50.1109°N, 8.6821°E)
Time: 14:36:27
(UTC+02:00)

X-37B - Visible Passes

Search period start: 23 October 2021 00:00
Search period end: 01 November 2021 23:00
Orbit: 342 x 346 km, 45.0° (Epoch: 22 October)

Date Brightness Start Highest point End Pass type
(mag) Time Alt. Az. Time Alt. Az. Time Alt. Az.
23 Oct 2.1 19:23:32 10° WSW 19:26:00 25° S 19:28:10 12° SE visible
24 Oct 2.8 19:47:00 10° WSW 19:49:02 17° SSW 19:50:32 13° SSE visible
26 Oct 3.0 18:58:01 10° WSW 18:59:59 17° SSW 19:01:57 10° SSE visible
